{"data":{"norad_id":43002,"intl_designator":"2017-069B","name":"BEIDOU-3 M2 (C20)","alt_names":[],"object_type":"PAYLOAD","status":"ACTIVE","operator":null,"country":"PRC","launch_date":"2017-11-05","launch_site_code":"XICLF","launch_vehicle":null,"mission":null,"orbit_class":"UNKNOWN","rcs_meters":null,"size_class":null,"mass_kg":null,"dimensions":null,"purposes":["nav"],"wikipedia_slug":null,"has_3d_model":false,"image_url":null,"decayed_at":null,"tle_current":{"epoch":"2026-09-19T13:49:39.993312Z","epoch_age_seconds":91019,"freshness":"FRESH","line1":"1 43002U 17069B   26262.57615733 -.00000010  00000+0  00000+0 0  9997","line2":"2 43002  56.7786  60.0164 0006006   2.5387 357.4847  1.86230841 60359","mean_motion":1.86230841,"eccentricity":0.0006006,"inclination_deg":56.7786,"raan_deg":60.0164,"arg_perigee_deg":2.5387,"mean_anomaly_deg":357.4847,"bstar":0,"rev_number":6035,"period_min":773.2339027562,"perigee_km":21511.306981305,"apogee_km":21544.827914087,"semimajor_km":27906.204447696,"source":"CELESTRAK","updated_at":"2026-09-20T09:00:46.675106Z"}}}